Simultaneous Nadir Overpasses (SNOs) Predictions

Prediction of SNOs between METOP-A and NOAA-19 Satellite Orbit:

Table of predicted SNOs for the next 14.0 days since TLE Epoch: 2/15/2020
Index Date (METOP-A) Time (METOP-A) Lat,Lon (METOP-A) SZA (METOP-A ) Date (NOAA-19) Time (NOAA-19) Lat,Lon (NOAA-19) SZA (NOAA-19 ) Distance(km) Time Diff (sec)
1 02/24/2020 04:00:49 -80.33, -46.65 89.90 02/24/2020 03:59:45 -80.32, -46.64 89.92 1.53 64
2 02/24/2020 04:51:30 80.32, 120.51 90.07 02/24/2020 04:50:42 80.33, 120.37 90.08 3.30 48
3 02/24/2020 05:42:11 -80.32, -72.11 89.94 02/24/2020 05:41:46 -80.33, -72.24 89.94 2.52 25
4 02/24/2020 06:32:52 80.31, 95.05 90.03 02/24/2020 06:32:42 80.32, 95.09 90.05 1.85 10
5 02/24/2020 07:23:33 -80.31, -97.57 89.98 02/24/2020 07:23:46 -80.31, -97.52 89.98 1.04 13
6 02/24/2020 08:14:13 80.32, 69.90 90.03 02/24/2020 08:14:42 80.31, 69.81 90.01 2.28 29
7 02/24/2020 09:04:55 -80.30,-123.04 90.02 02/24/2020 09:05:47 -80.32,-123.13 90.00 2.67 52




NCC Satellite Simultaneous Nadir Overpasses (SNOs) Prediction Service
